Regional Weather Roundup
Issued by NWS

Home | Current Version | Previous Version | Text Only | Print | Product List | Glossary Off
Versions: 1 2 3 4 5 6 7 8 9 10 11 12 13 14 15 16 17 18 19 20 21 22 23 24 25 26 27 28 29 30 31 32 33 34 35 36 37 38 39 40 41 42 43 44 45 46 47 48 49 50

000
ASUS43 KLMK 271602
RWRKY
KENTUCKY REGIONAL WEATHER ROUNDUP
NATIONAL WEATHER SERVICE LOUISVILLE KY
1200 PM EDT SUN MAY 27 2018

NOTE "FAIR" INDICATES FEW OR NO CLOUDS BELOW 12,000 FEET
WITH NO SIGNIFICANT WEATHER AND/OR OBSTRUCTIONS TO VISIBILITY.

KYZ001>023-026-027-061>063-070>075-271700-
WESTERN AND SOUTH CENTRAL KENTUCKY

CITY           SKY/WX    TMP DP  RH WIND       PRES   REMARKS
PADUCAH        PTSUNNY   87  73  62 CALM      29.91S HX  94
HENDERSON      FAIR      85  71  63 SE3       29.93S HX  90
OWENSBORO      FAIR      82  72  71 S6        29.94S
HOPKINSVILLE   FAIR      83  69  62 CALM      29.93S
BOWLING GREEN  CLOUDY    85  73  67 SE6       29.94S HX  91
GLASGOW        NOT AVBL
$$

KYZ024-025-028>034-038-045-046-053-271700-
NORTH CENTRAL KENTUCKY

CITY           SKY/WX    TMP DP  RH WIND       PRES   REMARKS
LOUISVILLE/SDF FAIR      84  70  62 S6        29.93S
LOUISVILLE/LOU FAIR      84  72  67 W5        29.94S
FORT KNOX      FAIR      81  68  64 SW3       29.96S
$$

KYZ035>037-039>044-047>052-055>060-089>105-271700-
NORTHEAST KENTUCKY

CITY           SKY/WX    TMP DP  RH WIND       PRES   REMARKS
LEXINGTON      FAIR      83  67  58 NW3       29.97S
COVINGTON      FAIR      82  70  66 SW5       29.94S
FRANKFORT      FAIR      83  68  60 CALM      29.95S
$$

KYZ054-064>069-076>088-106>120-271700-
SOUTHEAST KENTUCKY

CITY           SKY/WX    TMP DP  RH WIND       PRES   REMARKS
JACKSON        PTSUNNY   79  69  71 CALM      30.00S
LONDON         FAIR      78  68  71 CALM      29.99S
SOMERSET       NOT AVBL
MIDDLESBORO    CLOUDY    74  68  83 S5        30.02R
MONTICELLO     FAIR      80  70  71 NW8G17    30.00S
$$




USA.gov is the U.S. government's official web portal to all federal, state and local government web resources and services.